Location: Newark
(35.2672°N, 80.7344°W)
Time: 19:42:50
(UTC+00:00)

Vanguard 2 Rocket - Pass Details

Date: 22 January 2020
Orbit: 554 x 3326 km, 32.9° (Epoch: 16 February)

Event Time Altitude Azimuth Distance (km) Brightness Sun altitude
Rises 12:25:14 0° 261° (W) 3,129 9.1 -1.5°
Reaches altitude 10° 12:27:12 10° 259° (W) 2,385 8.6 -1.1°
Maximum altitude 12:32:44 74° 174° (S) 1,151 7.6 -0.1°
Drops below altitude 10° 12:42:34 10° 92° (E) 4,095 11.6 1.7°
Sets 12:46:57 0° 91° (E) 5,560 12.3 2.5°
